Philip, SD

12:00 PM MDT on May 22, 2017 (GMT -0600)
Philip

Weather History for KPHP - October, 2012

Change the Weather History Date:

Wednesday, October 17, 2012

  Actual Average Record
Temperature  
Mean Temperature 52 °F 48 °F  
Max Temperature 59 °F 63 °F 89 °F (1950)
Min Temperature 45 °F 34 °F 14 °F (1948)
Degree Days  
Heating Degree Days 13 17  
Month to date heating degree days 251 232  
Since 1 July heating degree days 340 418  
Cooling Degree Days 0 0  
Month to date cooling degree days 1 0  
Year to date cooling degree days 1202 814  
Growing Degree Days 1 (Base 50)    
Moisture  
Dew Point 26 °F    
Average Humidity 40    
Maximum Humidity 56    
Minimum Humidity 23    
Precipitation  
Precipitation T in 0.05 in 0.37 in (1988)
Month to date precipitation 0.10 0.86  
Year to date precipitation 6.31 15.73  
Sea Level Pressure  
Sea Level Pressure 29.59 in    
Wind  
Wind Speed 34 mph (WNW)    
Max Wind Speed 47 mph    
Max Gust Speed 60 mph    
Visibility 10 miles    
Events Rain    
T = Trace of Precipitation, MM = Missing Value Source: NWS Daily Summary

Daily Weather History Graph

Daily Weather History Graph

Search for Another Location

Airport or City:

Trip Planner

Search our weather history database for the weather conditions in past years. The results will help you decide how hot, cold, wet, or windy it might be!

Date:

Astronomy

Oct. 17, 2012 Rise Set
Actual Time 7:04 AM MDT 5:58 PM MDT
Civil Twilight 6:34 AM MDT 6:27 PM MDT
Nautical Twilight 6:01 AM MDT 7:00 PM MDT
Astronomical Twilight 5:28 AM MDT 7:34 PM MDT
Moon 9:47 AM MDT (10/17) 7:29 PM MDT (10/17)
Length of Visible Light 11h 52m
Length of Day
10h 54m
Waxing Crescent, 7% of the Moon is Illuminated
Oct 17
Waxing Crescent
Oct 21
First Quarter
Oct 29
Full
Nov 6
Last Quarter
Nov 13
New

Hourly Weather History & Observations

Time (MDT) Temp. Windchill Dew Point Humidity Pressure Visibility Wind Dir Wind Speed Gust Speed Precip Events Conditions
12:55 AM 53.1 °F - 45.0 °F 74% 29.42 in 10.0 mi NW 15.0 mph 25.3 mph 0.00 in   Mostly Cloudy
1:55 AM 51.1 °F - 34.0 °F 52% 29.44 in 10.0 mi NW 24.2 mph 39.1 mph N/A   Clear
2:55 AM 48.0 °F - 33.1 °F 56% 29.46 in 10.0 mi WNW 19.6 mph 28.8 mph N/A   Clear
3:55 AM 46.9 °F - 30.0 °F 52% 29.47 in 10.0 mi WNW 18.4 mph 28.8 mph N/A   Clear
4:55 AM 48.9 °F - 33.1 °F 54% 29.48 in 10.0 mi WNW 41.4 mph 57.5 mph N/A   Clear
5:55 AM 45.0 °F 34.1 °F 37.0 °F 74% 29.51 in 10.0 mi WNW 38.0 mph 54.1 mph 0.00 in Rain Light Rain
6:55 AM 46.0 °F 35.9 °F 34.0 °F 63% 29.53 in 10.0 mi WNW 35.7 mph 55.2 mph 0.00 in   Overcast
7:55 AM 48.0 °F - 32.0 °F 54% 29.54 in 10.0 mi WNW 41.4 mph 56.4 mph 0.00 in   Overcast
8:55 AM 48.9 °F - 30.9 °F 50% 29.55 in 10.0 mi WNW 39.1 mph 50.6 mph N/A   Overcast
9:55 AM 51.1 °F - 26.1 °F 38% 29.58 in 10.0 mi NW 39.1 mph 49.5 mph N/A   Clear
10:55 AM 54.0 °F - 23.0 °F 30% 29.60 in 10.0 mi NW 40.3 mph 50.6 mph N/A   Clear
11:55 AM 57.0 °F - 19.0 °F 23% 29.60 in 10.0 mi NW 41.4 mph 55.2 mph N/A   Clear
12:55 PM 55.9 °F - 19.0 °F 24% 29.62 in 10.0 mi WNW 40.3 mph 49.5 mph N/A   Scattered Clouds
1:55 PM 55.9 °F - 19.0 °F 24% 29.61 in 10.0 mi NW 39.1 mph 55.2 mph N/A   Clear
2:55 PM 57.0 °F - 19.0 °F 23% 29.61 in 10.0 mi NW 33.4 mph 49.5 mph N/A   Mostly Cloudy
3:55 PM 55.9 °F - 19.9 °F 25% 29.62 in 10.0 mi NW 36.8 mph 52.9 mph N/A   Mostly Cloudy
4:55 PM 55.0 °F - 19.9 °F 25% 29.64 in 10.0 mi NW 31.1 mph 52.9 mph N/A   Scattered Clouds
5:55 PM 51.1 °F - 19.0 °F 28% 29.67 in 10.0 mi WNW 31.1 mph 47.2 mph N/A   Partly Cloudy
6:55 PM 50.0 °F - 18.0 °F 28% 29.69 in 10.0 mi WNW 29.9 mph 43.7 mph N/A   Clear
7:55 PM 48.0 °F - 18.0 °F 30% 29.71 in 10.0 mi WNW 27.6 mph 40.3 mph N/A   Clear
8:55 PM 46.0 °F 36.9 °F 21.0 °F 37% 29.72 in 10.0 mi WNW 28.8 mph 39.1 mph N/A   Clear
9:55 PM 46.0 °F 36.4 °F 21.9 °F 39% 29.71 in 10.0 mi WNW 32.2 mph 43.7 mph N/A   Clear
10:55 PM 45.0 °F 35.2 °F 21.9 °F 40% 29.70 in 10.0 mi WNW 29.9 mph 44.9 mph N/A   Clear
11:55 PM 46.0 °F 35.8 °F 21.0 °F 37% 29.69 in 10.0 mi WNW 36.8 mph 47.2 mph N/A   Clear